Lexington Weather

Lexington, Massachusetts, USA

45°F
10/26/2020 5:08am 
  • Lexington Conditions: Overcast
  • Temperature: 45.1°F / 7.3°CWarmer 0.1°F than last hour.
  • Dew Point: 39.7°FIncreased 0.5°Fsince last hour.
  • Relative Humidity: 81%Increased 1.0% since last hour.
  • Wind: Wind from N N Calm, 10-min avg: 1 mph, gust: 3 mph
  • Barometer: 30.27 inFalling 0.02  inHg/hr Falling Slowly
  • Visibility: 10 miles
  • Rain Today: 0.00 in
  •   

Regional Weather Roundup
for Boston / Norton, MA

        
000
ASUS41 KBOX 242004
RWRBOX

REGIONAL WEATHER ROUNDUP
NATIONAL WEATHER SERVICE BOSTON/NORTON MA
400 PM EDT SAT OCT 24 2020

NOTE:  "FAIR" INDICATES FEW OR NO CLOUDS BELOW 12,000 FEET WITH NO 
SIGNIFICANT WEATHER AND/OR OBSTRUCTIONS TO VISIBILITY.

MAZALL-242100-
EASTERN MASSACHUSETTS
  
CITY           SKY/WX    TMP DP  RH WIND       PRES   REMARKS
BOSTON         CLOUDY    67  58  72 SW12      29.82F                  
BEVERLY        CLOUDY    69  58  67 W8        29.81S                  
LAWRENCE       CLOUDY    68  59  73 SW7       29.83S                  
BEDFORD        CLOUDY    68  59  73 W6        29.81S                  
BLUE HILL        N/A     63  58  83 W8        29.83S                  
NORWOOD        CLOUDY    67  59  75 SW5       29.82F                  
MARSHFIELD     CLOUDY    70  61  73 VRB6      29.82F                  
PLYMOUTH       PTSUNNY   67  58  72 SW9       29.83F                  
TAUNTON        CLOUDY    67  58  72 VRB5      29.83S                  
NEW BEDFORD    CLOUDY    67  59  75 SW8       29.84S                  
$$

MAZALL-242100-
CAPE COD AND THE ISLANDS
  
CITY           SKY/WX    TMP DP  RH WIND       PRES   REMARKS
FALMOUTH       PTSUNNY   64  59  82 SW13      29.84F                  
HYANNIS        PTSUNNY   66  58  75 SW9       29.83F                  
CHATHAM        MOSUNNY   65  56  72 SW8       29.85F                  
PROVINCETOWN   PTSUNNY   63  58  83 SW10      29.84S                  
NANTUCKET      CLOUDY    63  56  78 W9        29.86S                  
MARTHAS VNYRD  CLOUDY    64  59  83 SW8       29.86S                  
$$
 
MAZALL-242100-
CENTRAL AND WESTERN MASSACHUSETTS
  
CITY           SKY/WX    TMP DP  RH WIND       PRES   REMARKS
WORCESTER      PTSUNNY   63  53  70 W9        29.85F                  
FITCHBURG      CLOUDY    68  56  65 NW8       29.84S                  
ORANGE         PTSUNNY   67  51  56 NW16      29.87R                  
SPRINGFIELD    PTSUNNY   66  50  57 W6        29.86R                  
WESTFIELD      MOSUNNY   65  47  52 NW14      29.88R                  
NORTH ADAMS    CLOUDY    57  45  64 W12       29.93S                  
PITTSFIELD     CLOUDY    54  43  66 W13       29.93R                  
$$
 
RIZALL-242100-
RHODE ISLAND
  
CITY           SKY/WX    TMP DP  RH WIND       PRES   REMARKS
PROVIDENCE     CLOUDY    66  60  81 W7        29.85S                  
NEWPORT        CLOUDY    63  60  90 CALM      29.85S                  
BLOCK ISLAND   CLOUDY    63  59  87 SW13      29.87S                  
SMITHFIELD     CLOUDY    64  62  93 W7        29.85S                  
WESTERLY       CLOUDY    64  59  83 SW9       29.86F                  
$$
 
CTZALL-242100-
CONNECTICUT
  
CITY           SKY/WX    TMP DP  RH WIND       PRES   REMARKS
BRADLEY INTL   PTSUNNY   64  47  53 W6        29.88R                  
HARTFORD       CLOUDY    63  50  62 NW3       29.88S                  
BRIDGEPORT     CLOUDY    64  56  75 N9        29.89R                  
DANBURY        MOSUNNY   60  50  69 N10       29.91R                  
GROTON         CLOUDY    64  61  90 W7        29.86S FOG              
NEW HAVEN      CLOUDY    63  57  81 N13       29.88R                  
CHESTER        CLOUDY    59  57  94 VRB5      29.89R                  
MERIDEN        CLOUDY    61  48  62 NW7       29.89R                  
WILLIMANTIC    CLOUDY    61  54  77 W3        29.87F                  
OXFORD         CLOUDY    57  52  83 VRB6      29.91R                  
$$

MEZ002-015-021-024-NHZ003-005-008-011-012-014-VTZ005-008-242100-
NORTHERN NEW ENGLAND
  
CITY           SKY/WX    TMP DP  RH WIND       PRES   REMARKS
PORTLAND ME    CLOUDY    59  55  87 E5        29.83R                  
BANGOR ME      CLOUDY    60  53  77 VRB3      29.82F                  
CONCORD NH     CLOUDY    58  49  72 N17G23    29.86R                  
MANCHESTER NH  PTSUNNY   67  53  61 NW7       29.82R                  
NASHUA NH      CLOUDY    67  59  75 N7        29.83S                  
PORTSMOUTH NH  PTSUNNY   67  56  69 W7        29.80                   
JAFFREY NH     CLOUDY    63  47  55 NW8       29.87R                  
KEENE NH       PTSUNNY   64  46  52 N18       29.88R                  
BURLINGTON VT  CLOUDY    48  34  58 N8        30.03R                  
MT. WASHINGTON FOG       30  30 100 W32G38      N/A  VSB 1/16WCI  15  
$$

NYZ052-076-242100-
EASTERN NEW YORK
  
CITY           SKY/WX    TMP DP  RH WIND       PRES   REMARKS
ALBANY         MOSUNNY   53  42  66 W14G28    29.97S                  
NEW YORK CITY  PTSUNNY   70  54  56 NW13      29.88R                  
$$
 
ANZALL-242100-
MARINE OBSERVATIONS
  
STATION/POSITION TIME  TEMP    WIND        PRES    VSBY  WAVE
                       AIR SEA DIR/SP/G                  HT/PER
                 (UTC) (F)     (DEG/KT/KT) (MB)    (MI)  (FT/S)
BOSTON BUOY      1950   63 60  240/  8/ 10 1008.5F         5/11
BUZZARDS BAY     1900          250/ 15/ 16 1012.0F
NANTUCKET SOUND  1950      62  230/ 10/ 12   N/A           1/ 2
MASS BAY-STELLWA 1904   59 58  180/  6/  6 1009.0F  1 7/8  3/ 6
ISLE OF SHOALS   1900   58     180/ 11/ 12 1009.1F
S OF BLOCK IS    1926      64                N/A           7/13
$$

......................KEY.........................
  SKY/WX - SKY CONDITION/PRESENT WEATHER
  TMP    - TEMPERATURE IN FAHRENHEIT
  DWPT   - DEWPOINT IN FAHRENHEIT
  RH     - RELATIVE HUMIDITY IN PERCENT
  WIND   - DIRECTION AND SPEED IN MPH
  PRES   - MEAN SEA LEVEL PRESSURE IN INCHES OF HG
  WCI    - WIND CHILL INDEX
  VSB    - VISIBILITY IN MILES
  HX     - HEAT INDEX
  TC     - TEMPERATURE IN CELSIUS
  VRB    - VARIABLE WIND DIRECTION
  N/A    - NOT AVAILABLE
  
      

Other recent Regional Weather Roundups

Mon Oct 26, 5:04am

Mon Oct 26, 4:04am

Mon Oct 26, 3:04am

Mon Oct 26, 2:04am

Mon Oct 26, 1:04am

Mon Oct 26, 12:04am

Sun Oct 25, 11:05pm

Sun Oct 25, 10:04pm

Sun Oct 25, 9:04pm

Sun Oct 25, 8:04pm

Sun Oct 25, 7:04pm

Sun Oct 25, 6:04pm

Sun Oct 25, 5:04pm

Sun Oct 25, 4:05pm

Sun Oct 25, 3:04pm

Sun Oct 25, 2:04pm

Sun Oct 25, 1:04pm

Sun Oct 25, 12:04pm

Sun Oct 25, 11:04am

Sun Oct 25, 10:04am

Sun Oct 25, 9:04am

Sun Oct 25, 8:04am

Sun Oct 25, 7:04am

Sun Oct 25, 6:04am

Sun Oct 25, 5:04am

Sun Oct 25, 4:04am

Sun Oct 25, 3:04am

Sun Oct 25, 2:04am

Sun Oct 25, 1:05am

Sun Oct 25, 12:04am

Sat Oct 24, 11:04pm

Sat Oct 24, 10:04pm

Sat Oct 24, 9:04pm

Sat Oct 24, 8:04pm

Sat Oct 24, 7:04pm

Sat Oct 24, 6:04pm

Sat Oct 24, 5:05pm

Sat Oct 24, 3:04pm

Sat Oct 24, 2:04pm

Sat Oct 24, 1:05pm

Sat Oct 24, 12:04pm

Sat Oct 24, 11:05am

Sat Oct 24, 10:05am

Sat Oct 24, 9:04am

Sat Oct 24, 8:04am

Sat Oct 24, 7:04am

Sat Oct 24, 6:04am

Sat Oct 24, 5:04am

Sat Oct 24, 4:04am

Sat Oct 24, 3:04am

Sat Oct 24, 2:04am

Sat Oct 24, 1:05am

Sat Oct 24, 12:04am

Fri Oct 23, 11:04pm

Fri Oct 23, 10:04pm

Fri Oct 23, 9:04pm

Fri Oct 23, 8:05pm

Fri Oct 23, 7:04pm

Fri Oct 23, 6:04pm

Fri Oct 23, 5:05pm

Fri Oct 23, 4:04pm

Fri Oct 23, 3:04pm

Fri Oct 23, 2:05pm

Fri Oct 23, 1:04pm

Fri Oct 23, 12:04pm

Fri Oct 23, 11:04am

Fri Oct 23, 10:04am

Fri Oct 23, 9:04am

Fri Oct 23, 8:04am

Fri Oct 23, 7:04am

Fri Oct 23, 6:04am

Fri Oct 23, 5:04am

Fri Oct 23, 4:04am

Fri Oct 23, 3:04am

Fri Oct 23, 2:04am

Fri Oct 23, 1:04am

Fri Oct 23, 12:04am

Thu Oct 22, 11:04pm

Thu Oct 22, 10:04pm

Thu Oct 22, 9:05pm

Thu Oct 22, 8:04pm

Thu Oct 22, 7:05pm

Thu Oct 22, 6:04pm

Thu Oct 22, 5:04pm

Thu Oct 22, 4:05pm

Thu Oct 22, 3:04pm

Thu Oct 22, 2:05pm

Thu Oct 22, 1:04pm

Thu Oct 22, 12:04pm

Thu Oct 22, 11:04am

Thu Oct 22, 10:05am

Thu Oct 22, 9:04am

Thu Oct 22, 8:05am

Thu Oct 22, 7:04am

Thu Oct 22, 6:04am

Thu Oct 22, 5:04am

Thu Oct 22, 4:04am

Thu Oct 22, 3:04am

Thu Oct 22, 2:04am

Thu Oct 22, 1:04am

Thu Oct 22, 12:04am

Wed Oct 21, 11:05pm

Wed Oct 21, 10:04pm

Wed Oct 21, 9:04pm

Wed Oct 21, 8:04pm

Wed Oct 21, 7:04pm

Wed Oct 21, 6:04pm

Wed Oct 21, 5:05pm

Wed Oct 21, 4:04pm

Wed Oct 21, 3:04pm

Wed Oct 21, 2:05pm

Wed Oct 21, 1:04pm

Wed Oct 21, 12:04pm

Wed Oct 21, 11:04am

Wed Oct 21, 10:04am

Wed Oct 21, 9:04am

Wed Oct 21, 8:04am

Wed Oct 21, 7:04am

Wed Oct 21, 6:04am

Wed Oct 21, 5:04am

Wed Oct 21, 4:04am

Wed Oct 21, 3:04am

Wed Oct 21, 2:04am

Wed Oct 21, 1:04am

Wed Oct 21, 12:04am

Tue Oct 20, 11:05pm

Tue Oct 20, 10:04pm

Tue Oct 20, 9:04pm

Tue Oct 20, 8:05pm

Tue Oct 20, 7:04pm

Tue Oct 20, 6:04pm

Tue Oct 20, 5:05pm

Tue Oct 20, 4:04pm

Tue Oct 20, 3:05pm

Tue Oct 20, 2:07pm

Tue Oct 20, 1:04pm

Tue Oct 20, 12:04pm

Tue Oct 20, 11:04am

Tue Oct 20, 10:05am

Tue Oct 20, 9:04am

Tue Oct 20, 8:04am

Tue Oct 20, 7:04am

Tue Oct 20, 6:04am

Tue Oct 20, 5:04am

Tue Oct 20, 4:04am

Tue Oct 20, 3:04am

Tue Oct 20, 2:04am

Tue Oct 20, 1:04am

Tue Oct 20, 12:04am

Mon Oct 19, 11:04pm

Mon Oct 19, 10:04pm

Mon Oct 19, 9:04pm

Mon Oct 19, 8:04pm

Mon Oct 19, 7:04pm

Mon Oct 19, 6:04pm

Mon Oct 19, 5:04pm

Mon Oct 19, 4:04pm

Mon Oct 19, 3:04pm

Mon Oct 19, 2:04pm

Mon Oct 19, 1:05pm

Mon Oct 19, 12:04pm

Mon Oct 19, 11:04am

Mon Oct 19, 10:04am

Mon Oct 19, 9:04am

Mon Oct 19, 8:04am

Mon Oct 19, 7:04am

Mon Oct 19, 6:04am

Mon Oct 19, 5:04am

Meta data:

ID: 99adb1a9-b4f0-4879-9941-6d49015215cd
Link: https://api.weather.gov/products/99adb1a9-b4f0-4879-9941-6d49015215cd